Location: Cactus School
(34.5700°N, 118.0931°W)
Time: 08:57:37
(UTC-07:00)

Vanguard 1 Rocket - Pass Details

Date: 19 April 2024
Orbit: 650 x 4220 km, 34.3° (Epoch: 22 May)

Event Time Altitude Azimuth Distance (km) Brightness Sun altitude
Rises 19:52:55 0° 255° (WSW) 3,048 11.2 -5.7°
Reaches altitude 10° 19:54:54 10° 254° (WSW) 2,249 10.4 -6.1°
Maximum altitude 19:59:53 79° 169° (SSE) 986 7.5 -7.1°
Drops below altitude 10° 20:08:26 10° 83° (E) 3,746 10.0 -8.7°
Enters shadow 20:10:31 - 83° (E) 4,514 10.4 -9.1°
